Flight Track Log - Related Links

Times and Time Zones

All times are in EDT time to prevent confusion due to time zone crossing. See the N2767T flight status page for this flight to view local times or setup timezone preferences in your user account.

Time Position Orientation Groundspeed Altitude Reporting Facility
EDT Latitude Longitude Course Direction KTS MPH feet Rate Location/Type
Mon 03:45:27 PM 37.9356 -92.6914 180° South 125 144 5,100  Level Kansas City Center
Mon 03:46:29 PM 37.8983 -92.6944 184° South 130 150 5,700 532 Climbing Kansas City Center
Mon 03:47:31 PM 37.8592 -92.6972 183° South 135 155 6,200 387 Climbing Kansas City Center
Mon 03:48:33 PM 37.8197 -92.6975 180° South 139 160 6,500 146 Climbing Kansas City Center
Mon 03:49:34 PM 37.7750 -92.7014 184° South 149 171 6,500  Level Kansas City Center
Mon 03:50:00 PM 37.8852 -92.7075 180° South  Level Estimated
Mon 03:50:36 PM 37.7300 -92.7086 187° South 157 181 6,500  Level Kansas City Center
Mon 03:51:38 PM 37.6772 -92.7156 186° South 159 183 6,500  Level Kansas City Center
Mon 03:52:40 PM 37.6336 -92.7219 187° South 159 183 6,500  Level Kansas City Center
Mon 03:53:42 PM 37.5897 -92.7281 186° South 158 182 6,500  Level Kansas City Center
Mon 03:54:44 PM 37.5467 -92.7333 186° South 157 181 6,500  Level Kansas City Center
Mon 03:55:46 PM 37.5022 -92.7386 185° South 158 182 6,500  Level Kansas City Center
Mon 03:56:48 PM 37.4569 -92.7433 185° South 160 184 6,500  Level Kansas City Center
Mon 03:57:50 PM 37.4044 -92.7503 186° South 159 183 6,500  Level Kansas City Center
Mon 03:58:52 PM 37.3603 -92.7561 186° South 160 184 6,500  Level Kansas City Center
Mon 03:59:54 PM 37.3167 -92.7600 184° South 158 182 6,500  Level Kansas City Center
Mon 04:00:56 PM 37.2722 -92.7653 185° South 159 183 6,500 48 Level Kansas City Center
Mon 04:01:58 PM 37.2261 -92.7714 186° South 162 186 6,600  Climbing Kansas City Center
Mon 04:03:00 PM 37.1822 -92.7767 185° South 161 185 6,500  Descending Kansas City Center
Mon 04:04:02 PM 37.1375 -92.7831 186° South 161 185 6,600 48 Climbing Kansas City Center
Mon 04:05:04 PM 37.0847 -92.7881 184° South 160 184 6,600  Level Kansas City Center
Mon 04:06:06 PM 37.0422 -92.7939 186° South 157 181 6,600  Level Kansas City Center
Mon 04:07:08 PM 36.9992 -92.7986 185° South 155 178 6,600  Level Kansas City Center
Mon 04:08:10 PM 36.9561 -92.8036 185° South 155 178 6,600  Level Kansas City Center
Mon 04:09:12 PM 36.9111 -92.8086 185° South 158 182 6,600  Level Kansas City Center
Mon 04:10:14 PM 36.8686 -92.8139 186° South 156 180 6,600  Level Kansas City Center
Mon 04:10:44 PM 36.8431 -92.8222 195° South 159 183 6,600  Level Memphis Center
Mon 04:11:44 PM 36.8014 -92.8236 182° South 159 183 6,600  Level Memphis Center
Mon 04:12:44 PM 36.7636 -92.8303 188° South 164 189 6,600  Level Memphis Center
Mon 04:13:44 PM 36.7239 -92.8369 188° South 159 183 6,600  Level Memphis Center
Mon 04:14:44 PM 36.6822 -92.8381 181° South 159 183 6,600  Level Memphis Center
Mon 04:15:44 PM 36.6425 -92.8447 188° South 159 183 6,600  Level Memphis Center
Mon 04:16:44 PM 36.6006 -92.8536 190° South 159 183 6,600  Level Memphis Center
Mon 04:17:44 PM 36.5611 -92.8550 182° South 154 177 6,600  Level Memphis Center
Mon 04:18:44 PM 36.5214 -92.8617 188° South 149 171 6,600  Level Memphis Center
Mon 04:19:44 PM 36.4817 -92.8656 185° South 149 171 6,600  Level Memphis Center
Mon 04:20:44 PM 36.4419 -92.8694 185° South 154 177 6,600  Level Memphis Center
Mon 04:21:44 PM 36.3981 -92.8733 184° South 159 183 6,600  Level Memphis Center
Mon 04:22:44 PM 36.3564 -92.8772 184° South 159 183 6,600  Level Memphis Center
Mon 04:23:44 PM 36.3125 -92.8836 187° South 159 183 6,600  Level Memphis Center
Mon 04:24:44 PM 36.2706 -92.8875 184° South 159 183 6,600  Level Memphis Center
Mon 04:25:44 PM 36.2308 -92.8964 190° South 159 183 6,600  Level Memphis Center
Mon 04:26:44 PM 36.1869 -92.9028 187° South 159 183 6,600  Level Memphis Center
Mon 04:27:44 PM 36.1431 -92.9067 184° South 159 183 6,600  Level Memphis Center
Mon 04:28:44 PM 36.0992 -92.9078 181° South 159 183 6,600  Level Memphis Center
Mon 04:29:44 PM 36.0553 -92.9142 187° South 159 183 6,600  Level Memphis Center
Mon 04:30:45 PM 36.0136 -92.9181 184° South 159 183 6,600  Level Memphis Center
Mon 04:31:44 PM 35.9697 -92.9242 186° South 159 183 6,600  Level Memphis Center
Mon 04:32:44 PM 35.9300 -92.9308 188° South 159 183 6,600  Level Memphis Center
Mon 04:33:44 PM 35.8881 -92.9372 187° South 159 183 6,600  Level Memphis Center
Mon 04:34:44 PM 35.8464 -92.9383 181° South 159 183 6,600  Level Memphis Center
Mon 04:35:44 PM 35.8025 -92.9422 184° South 159 183 6,600  Level Memphis Center
Mon 04:36:44 PM 35.7628 -92.9486 187° South 159 183 6,600  Level Memphis Center
Mon 04:37:44 PM 35.7208 -92.9550 187° South 154 177 6,600  Level Memphis Center
Mon 04:38:44 PM 35.6811 -92.9664 193° South 154 177 6,600  Level Memphis Center
Mon 04:39:44 PM 35.6436 -92.9653 179° South 154 177 6,600  Level Memphis Center
Mon 04:40:44 PM 35.6039 -92.9667 182° South 149 171 6,600  Level Memphis Center
Mon 04:41:44 PM 35.5642 -92.9731 187° South 143 165 6,600  Level Memphis Center
Mon 04:42:44 PM 35.5244 -92.9769 185° South 143 165 6,600  Level Memphis Center
Mon 04:43:44 PM 35.4825 -92.9806 184° South 143 165 6,600  Level Memphis Center
Mon 04:44:44 PM 35.4408 -92.9869 187° South 143 165 6,600  Level Memphis Center
Mon 04:45:44 PM 35.3925 -92.9931 186° South 148 170 6,600  Level Memphis Center
Mon 04:46:44 PM 35.3528 -92.9969 185° South 153 176 6,600  Level Memphis Center
Mon 04:47:44 PM 35.3131 -93.0033 187° South 153 176 6,600  Level Memphis Center
Mon 04:48:44 PM 35.2672 -93.0069 184° South 158 182 6,600  Level Memphis Center
Mon 04:49:44 PM 35.2253 -93.0108 184° South 158 182 6,600  Level Memphis Center
Mon 04:50:44 PM 35.1814 -93.0144 184° South 163 188 6,600  Level Memphis Center
Mon 04:51:44 PM 35.1417 -93.0183 185° South 163 188 6,600  Level Memphis Center
Mon 04:52:44 PM 35.0978 -93.0219 184° South 163 188 6,600  Level Memphis Center
Mon 04:53:44 PM 35.0539 -93.0281 187° South 163 188 6,600  Level Memphis Center
Mon 04:54:44 PM 35.0119 -93.0344 187° South 163 188 6,600  Level Memphis Center
Mon 04:55:44 PM 34.9703 -93.0383 184° South 163 188 6,600  Level Memphis Center
Mon 04:56:44 PM 34.9283 -93.0444 187° South 163 188 6,600  Level Memphis Center
Mon 04:57:44 PM 34.8908 -93.0483 185° South 157 181 6,600  Level Memphis Center
Mon 04:58:44 PM 34.8511 -93.0547 188° South 152 175 6,600 -200 Level Memphis Center
Mon 04:59:44 PM 34.8092 -93.0583 184° South 152 175 6,200 -400 Descending Memphis Center
Mon 05:00:44 PM 34.7694 -93.0647 188° South 152 175 5,800 -450 Descending Memphis Center
Mon 05:01:44 PM 34.7297 -93.0661 182° South 146 168 5,300 -500 Descending Memphis Center

Login

Don't have an account? Register now (free) for customized features, flight alerts, and more!